Location: Caltech
(34.1382°N, 118.1253°W)
Time: 17:01:39
(UTC-07:00)

Cosmos 2084 - Visible Passes

Search period start: 20 September 2014 00:00
Search period end: 30 September 2014 00:00
Orbit: 571 x 629 km, 62.8° (Epoch: 19 September)

Date Brightness Start Highest point End Pass type
(mag) Time Alt. Az. Time Alt. Az. Time Alt. Az.
26 Sep 6.4 05:51:50 10° NNE 05:54:10 14° NE 05:56:30 10° ENE visible
27 Sep 6.0 06:01:55 10° N 06:05:36 24° NE 06:09:15 10° ESE visible
28 Sep 4.9 06:12:34 10° NNW 06:16:54 42° NE 06:21:12 10° SE visible
29 Sep 6.8 04:47:14 10° NE 04:47:42 10° NE 04:48:10 10° NE visible
